EW6887 Weather Reports


time (UTC)temp
C
wind
direction
speed
KPH
gust
KPH
rain 1hr
cm
rain 24hr
cm
rain mn
cm
humidity
%
barometer
mb
20260905170028 19 173 0.0 0.0 0.00 0.00 0.00 49 1017.3
20260905164525 19 51 0.0 0.0 0.00 0.00 0.00 49 1017.2
20260905163012 19 109 0.0 0.0 0.00 0.00 0.00 50 1017.1
20260905161500 20 179 0.0 0.0 0.00 0.00 0.00 49 1016.9
20260905160054 20 190 0.0 0.0 0.00 0.00 0.00 49 1016.9
20260905154547 20 157 0.0 0.0 0.00 0.00 0.00 49 1016.7
20260905153039 21 195 0.0 0.0 0.00 0.00 0.00 47 1016.7
20260905151531 21 32 0.0 0.0 0.00 0.00 0.00 46 1016.6
20260905150025 21 211 0.0 0.0 0.00 0.00 0.00 46 1016.5
20260905144524 21 360 0.0 0.0 0.00 0.00 0.00 47 1016.5
20260905143012 21 290 0.0 0.0 0.00 0.00 0.00 47 1016.5
20260905141502 21 69 0.0 0.0 0.00 0.00 0.00 47 1016.4
20260905140059 21 165 0.0 0.0 0.00 0.00 0.00 48 1016.4
20260905134555 20 58 0.0 0.0 0.00 0.00 0.00 52 1016.5
20260905133045 20 163 0.0 0.0 0.00 0.00 0.00 51 1016.6
20260905131536 22 195 0.0 0.0 0.00 0.00 0.00 48 1016.6
20260905130030 21 109 0.0 0.0 0.00 0.00 0.00 49 1016.7
20260905124522 21 103 0.0 0.0 0.00 0.00 0.00 50 1016.8
20260905123114 21 62 0.0 0.0 0.00 0.00 0.00 50 1017.0
20260905121505 20 64 0.0 0.0 0.00 0.00 0.00 49 1017.1
20260905120101 21 62 0.0 0.0 0.00 0.00 0.00 49 1017.2
20260905114601 20 28 0.0 0.0 0.00 0.00 0.00 54 1017.1
20260905113050 20 109 0.0 0.0 0.00 0.00 0.00 55 1017.1
20260905111514 19 101 0.0 0.0 0.00 0.00 0.00 60 1017.0
20260905110008 20 155 0.0 0.0 0.00 0.00 0.00 62 1017.1
20260905104603 20 209 0.0 0.0 0.00 0.00 0.00 62 1016.9
20260905103104 20 30 0.0 0.0 0.00 0.00 0.00 60 1016.9
20260905101606 19 98 0.0 0.0 0.00 0.00 0.00 63 1016.8
20260905100121 19 144 0.0 0.0 0.00 0.00 0.00 64 1016.8
20260905094551 18 360 0.0 0.0 0.00 0.00 0.00 67 1016.9
20260905093042 19 57 0.0 0.0 0.00 0.00 0.00 69 1017.1
20260905091542 18 181 0.0 0.0 0.00 0.00 0.00 73 1017.0
20260905090026 17 84 0.0 0.0 0.00 0.00 0.00 77 1017.0
20260905084519 18 71 0.0 0.0 0.00 0.00 0.00 78 1016.9
20260905083010 17 109 0.0 0.0 0.00 0.00 0.00 80 1016.8
20260905081502 17 91 0.0 0.0 0.00 0.00 0.00 81 1016.6
20260905080059 16 67 0.0 0.0 0.00 0.00 0.00 84 1016.5
20260905074559 15 75 0.0 0.0 0.00 0.00 0.00 85 1016.5
20260905073050 15 50 0.0 0.0 0.00 0.00 0.00 86 1016.4
20260905071544 15 5 0.0 0.0 0.00 0.00 0.00 88 1016.3
20260905070036 15 98 0.0 0.0 0.00 0.00 0.00 89 1016.3
20260905064529 14 71 0.0 0.0 0.00 0.00 0.00 91 1016.2
20260905063018 13 101 0.0 0.0 0.00 0.00 0.00 91 1016.1
20260905061511 13 98 0.0 0.0 0.00 0.00 0.00 91 1016.1
20260905060004 13 100 0.0 0.0 0.00 0.00 0.00 91 1016.0
20260905054708 13 96 0.0 0.0 0.00 0.00 0.00 91 1015.8
20260905053021 13 107 0.0 0.0 0.00 0.00 0.00 90 1015.5
20260905051513 13 105 0.0 0.0 0.00 0.00 0.00 91 1015.4
20260905050100 14 75 0.0 0.0 0.00 0.00 0.00 91 1015.0
20260905044607 14 94 0.0 0.0 0.00 0.00 0.00 91 1014.6
20260905043045 15 55 0.0 0.0 0.00 0.00 0.00 91 1014.3
20260905041539 15 161 0.0 0.0 0.00 0.00 0.00 90 1015.0
20260905040026 15 67 0.0 0.0 0.00 0.00 0.00 89 1014.5
20260905034518 15 54 0.0 0.0 0.00 0.00 0.00 88 1014.7
20260905033013 16 95 0.0 0.0 0.00 0.00 0.00 86 1014.3
20260905031600 16 95 0.0 0.0 0.00 0.00 0.00 85 1014.0
20260905030047 16 95 0.0 0.0 0.00 0.00 0.00 84 1014.0
20260905024553 16 94 0.0 0.0 0.00 0.00 0.00 82 1013.8
20260905023033 16 109 0.0 0.0 0.00 0.00 0.00 82 1013.3
20260905021525 16 80 0.0 0.0 0.00 0.00 0.00 81 1013.7
20260905020017 17 121 0.0 0.0 0.00 0.00 0.00 79 1013.2
20260905014507 17 80 0.0 0.0 0.00 0.00 0.00 78 1013.3
20260905013104 17 52 0.0 0.0 0.00 0.00 0.00 77 1013.2
20260905011657 17 92 0.0 0.0 0.00 0.00 0.00 76 1013.1
20260905010100 18 185 0.0 0.0 0.00 0.00 0.00 75 1012.9
20260905004543 18 207 0.0 0.0 0.00 0.00 0.00 73 1012.7
20260905003036 18 165 0.0 0.0 0.00 0.00 0.00 71 1012.6
20260905001626 19 206 0.0 0.0 0.00 0.00 0.00 70 1012.5
20260905000058 19 175 0.0 0.0 0.00 0.00 0.00 68 1012.0
20260904234551 19 172 0.0 0.0 0.00 0.00 0.00 69 1011.3
20260904233041 18 140 0.0 0.0 0.00 0.00 0.00 71 1011.2
20260904231545 18 210 0.0 0.0 0.00 0.00 0.00 71 1011.0
20260904230024 19 195 0.0 0.0 0.00 0.00 0.00 72 1010.5
20260904224513 20 189 0.0 0.0 0.00 0.00 0.00 76 1009.7
20260904223002 20 190 0.0 0.0 0.00 0.00 0.00 74 1009.2
20260904221604 20 190 0.0 0.0 0.00 0.00 0.00 72 1009.3
20260904220047 21 190 0.0 0.0 0.00 0.00 0.00 69 1009.1
20260904214532 22 190 0.0 0.0 0.00 0.00 0.00 66 1008.9
20260904213024 22 190 0.0 0.0 0.00 0.00 0.00 64 1008.8
20260904211516 22 190 0.0 0.0 0.00 0.00 0.00 63 1008.8
20260904210011 22 41 0.0 0.0 0.00 0.00 0.00 62 1008.5
20260904204559 23 40 0.0 0.0 0.00 0.00 0.00 61 1008.4
20260904203059 23 50 0.0 0.0 0.00 0.00 0.00 61 1008.4
20260904201550 23 40 0.0 0.0 0.00 0.00 0.00 61 1008.6
20260904200056 23 64 0.0 0.0 0.00 0.00 0.00 61 1008.7
20260904194533 23 41 0.0 0.0 0.00 0.00 0.00 61 1008.8
20260904193122 23 49 0.0 0.0 0.00 0.00 0.00 61 1008.9
20260904191512 24 53 0.0 0.0 0.00 0.00 0.00 60 1008.9
20260904190005 24 53 0.0 0.0 0.00 0.00 0.00 59 1008.9
20260904184611 24 63 0.0 0.0 0.00 0.00 0.00 59 1009.0
20260904183056 24 67 0.0 0.0 0.00 0.00 0.00 59 1009.1
20260904181548 24 69 0.0 0.0 0.00 0.00 0.00 59 1009.1
20260904180047 25 82 0.0 0.0 0.00 0.00 0.00 58 1009.1
20260904174531 25 92 0.0 0.0 0.00 0.00 0.00 58 1009.0
20260904173025 25 94 0.0 0.0 0.00 0.00 0.00 57 1009.1
20260904171515 25 88 0.0 0.0 0.00 0.00 0.00 57 1009.3